Regional Weather Roundup
Issued by NWS

Home | Current Version | Previous Version | Graphics & Text | Print | Product List | Glossary On
Versions: 1 2 3 4 5 6 7 8 9 10 11 12 13 14 15 16 17 18 19 20 21 22 23 24 25 26 27 28 29 30 31 32 33 34 35 36 37 38 39 40 41 42 43 44 45 46 47 48 49 50
000
ASUS43 KBIS 232202
RWRND

NORTH DAKOTA REGIONAL WEATHER ROUNDUP
NATIONAL WEATHER SERVICE BISMARCK ND
500 PM CDT TUE AUG 23 2016

NOTE: "FAIR" INDICATES FEW OR NO CLOUDS BELOW 12,000 FEET WITH NO
SIGNIFICANT WEATHER AND/OR OBSTRUCTIONS TO VISIBILITY.


NDZ001>003-009>011-017-232300-
NORTHWEST NORTH DAKOTA

CITY           SKY/WX    TMP DP  RH WIND       PRES   REMARKS
WILLISTON      MOSUNNY   79  39  23 W21G30    29.84F
MINOT          SUNNY     79  43  27 W14G22    29.79S
MINOT AFB      SUNNY     77  42  28 NW17      29.77F
$$

NDZ018>021-031>035-040>046-232300-
SOUTHWEST NORTH DAKOTA

CITY           SKY/WX    TMP DP  RH WIND       PRES   REMARKS
BISMARCK       SUNNY     81  39  22 NW22G32   29.82R
DICKINSON      MOSUNNY   78  28  16 NW13G30   29.88S
GARRISON         N/A     80  39  23 NW18      29.81S
HETTINGER ARPT SUNNY     79  33  19 NW21G29   29.92R
$$

NDZ004>008-012>016-024-026-027-054-232300-
NORTHEAST NORTH DAKOTA

CITY           SKY/WX    TMP DP  RH WIND       PRES   REMARKS
GRAND FORKS    CLOUDY    86  68  54 SW22G29   29.65S
GRND FRKS AFB  CLOUDY    83  68  60 SW16      29.67R
DEVILS LAKE    CLOUDY    75  69  81 NW9       29.72R
$$

NDZ022-023-025-028>030-036>039-047>053-232300-
SOUTHEAST NORTH DAKOTA

CITY           SKY/WX    TMP DP  RH WIND       PRES   REMARKS
FARGO          MOSUNNY   89  65  44 S24G33    29.69S HX  91
JAMESTOWN      CLOUDY    77  68  73 NW17G23   29.73R
$$





USA.gov is the U.S. government's official web portal to all federal, state and local government web resources and services.